Weather History for Milton, FL

Change the Weather History Date:

Wednesday, October 10, 2012

  Actual Average (KNSE) Record (KNSE)
Temperature  
Mean Temperature 68 °F -  
Max Temperature 82 °F 77 °F 88 °F (1997)
Min Temperature 53 °F 58 °F 46 °F (2000)
Cooling Degree Days 2    
Growing Degree Days 18 (Base 50)    
Moisture  
Dew Point 57 °F    
Average Humidity 72    
Maximum Humidity 93    
Minimum Humidity 44    
Precipitation  
Precipitation 0.00 in - - ()
Sea Level Pressure  
Sea Level Pressure 30.08 in    
Wind  
Wind Speed 3 mph (North)    
Max Wind Speed 12 mph    
Max Gust Speed -    
Visibility 10 miles    
Events      
Averages and records for this station are not official NWS values.
T = Trace of Precipitation, MM = Missing Value Source: NWS Daily Summary

Daily Weather History Graph

Daily Weather History Graph

Search for Another Location

Airport:

Trip Planner

Search our weather history database for the weather conditions in past years. The results will help you decide how hot, cold, wet, or windy it might be!

Date:

Astronomy

Oct. 10, 2012 Rise Set
Actual Time 6:47 AM CDT 6:21 PM CDT
Civil Twilight 6:23 AM CDT 6:46 PM CDT
Nautical Twilight 5:55 AM CDT 7:13 PM CDT
Astronomical Twilight 5:27 AM CDT 7:41 PM CDT
Moon 1:43 AM CDT (10/10) 3:06 PM CDT (10/10)
Length of Visible Light 12h 22m
Length of Day
11h 34m
Waning Crescent, 27% of the Moon is Illuminated
Oct 10
Waning Crescent
Oct 15
New
Oct 21
First Quarter
Oct 29
Full
Nov 6
Last Quarter

Hourly Weather History & Observations

Time (CDT) Temp. Heat Index Dew Point Humidity Pressure Visibility Wind Dir Wind Speed Gust Speed Precip Events Conditions
12:56 AM 61.0 °F - 55.9 °F 83% 30.04 in 10.0 mi Calm Calm - N/A   Clear
1:56 AM 55.0 °F - 52.0 °F 89% 30.04 in 10.0 mi Calm Calm - N/A   Clear
2:56 AM 53.1 °F - 51.1 °F 93% 30.05 in 10.0 mi NW 3.5 mph - N/A   Clear
3:56 AM 54.0 °F - 52.0 °F 93% 30.06 in 9.0 mi NW 4.6 mph - N/A   Clear
4:56 AM 53.1 °F - 51.1 °F 93% 30.07 in 9.0 mi NW 4.6 mph - N/A   Clear
5:56 AM 54.0 °F - 52.0 °F 93% 30.09 in 6.0 mi NW 4.6 mph - N/A   Clear
6:56 AM 55.0 °F - 53.1 °F 93% 30.10 in 10.0 mi Calm Calm - N/A   Clear
7:56 AM 62.1 °F - 57.0 °F 84% 30.12 in 10.0 mi Calm Calm - N/A   Clear
8:56 AM 66.0 °F - 59.0 °F 78% 30.12 in 10.0 mi Calm Calm - N/A   Clear
9:56 AM 73.0 °F - 60.1 °F 64% 30.12 in 10.0 mi North 3.5 mph - N/A   Clear
10:56 AM 75.9 °F - 59.0 °F 56% 30.12 in 10.0 mi NNW 6.9 mph - N/A   Clear
11:56 AM 79.0 °F - 57.9 °F 48% 30.11 in 10.0 mi Variable 5.8 mph - N/A   Clear
12:56 PM 80.1 °F 80.6 °F 57.9 °F 47% 30.09 in 10.0 mi North 5.8 mph - N/A   Clear
1:56 PM 82.0 °F 82.0 °F 57.9 °F 44% 30.07 in 10.0 mi NE 8.1 mph - N/A   Clear
2:56 PM 82.0 °F 82.1 °F 59.0 °F 45% 30.05 in 10.0 mi North 8.1 mph - N/A   Clear
3:56 PM 82.9 °F 83.2 °F 60.1 °F 46% 30.05 in 10.0 mi North 9.2 mph - N/A   Partly Cloudy
4:56 PM 81.0 °F 81.6 °F 60.1 °F 49% 30.05 in 10.0 mi North 11.5 mph - N/A   Clear
5:56 PM 77.0 °F - 60.1 °F 56% 30.06 in 10.0 mi North 8.1 mph - N/A   Clear
6:56 PM 73.9 °F - 61.0 °F 64% 30.07 in 10.0 mi NE 5.8 mph - N/A   Clear
7:56 PM 71.1 °F - 60.1 °F 68% 30.09 in 10.0 mi NNE 4.6 mph - N/A   Clear
8:56 PM 64.9 °F - 61.0 °F 87% 30.11 in 10.0 mi Calm Calm - N/A   Clear
9:56 PM 64.0 °F - 60.1 °F 87% 30.12 in 10.0 mi North 4.6 mph - N/A   Clear
10:56 PM 62.1 °F - 57.9 °F 86% 30.12 in 10.0 mi North 4.6 mph - N/A   Clear
11:56 PM 62.1 °F - 59.0 °F 90% 30.12 in 10.0 mi Calm Calm - N/A   Clear